Location: Cheyres
(46.8153°N, 6.7877°E)
Time: 20:13:51
(UTC+00:00)

AO-109 - Pass Details

Date: 11 July 2022
Orbit: 469 x 506 km, 60.7° (Epoch: 16 August)

Event Time Altitude Azimuth Distance (km) Brightness Sun altitude
Exits shadow 00:12:16 31° 105° (ESE) 868 ? -20.6°
Drops below altitude 10° 00:15:04 10° 61° (ENE) 1,666 ? -20.6°
Sets 00:17:22 0° 51° (NE) 2,559 ? -20.5°
